When you browse on this site, cookies collect data to enhance your experience and personalize the content and advertising you see.
Visit our Privacy Policy to learn more. By continuing to use the site, you agree to this use of cookies and data.
  • Em Portugal
  • Lista de países
  • Para 7 dias
  • Temperatura da água
  • Mapas de satélite
  • Mapa do tempo
  • Widgets de tempo
  • user-avatar
    Iniciar Sessão

    Previsão horária em Marsa al-Burajka

    Hoje, 18 Janeiro, Sexta-feira

    Tempo Temperatura Precipitação Vento Pressão Humidade
    00:00 +10°C° 0 mm 5 m/s 766 mmHg 48%
    01:00 +9°C° 0 mm 5 m/s 766 mmHg 49%
    02:00 +9°C° 0 mm 5 m/s 766 mmHg 49%
    03:00 +9°C° 0 mm 5 m/s 765 mmHg 49%
    04:00 +8°C° 0 mm 5 m/s 765 mmHg 49%
    05:00 +8°C° 0 mm 5 m/s 765 mmHg 49%
    06:00 +8°C° 0 mm 5 m/s 765 mmHg 50%
    07:00 +8°C° 0 mm 5 m/s 765 mmHg 50%
    08:00 +9°C° 0 mm 5 m/s 765 mmHg 45%
    09:00 +10°C° 0 mm 5 m/s 766 mmHg 41%
    10:00 +13°C° 0 mm 5 m/s 766 mmHg 36%
    11:00 +14°C° 0 mm 5 m/s 765 mmHg 33%
    12:00 +15°C° 0 mm 5 m/s 765 mmHg 30%
    13:00 +16°C° 0 mm 5 m/s 765 mmHg 27%
    14:00 +16°C° 0 mm 5 m/s 764 mmHg 27%
    15:00 +17°C° 0 mm 4 m/s 764 mmHg 27%
    16:00 +17°C° 0 mm 4 m/s 764 mmHg 27%
    17:00 +15°C° 0 mm 5 m/s 764 mmHg 30%
    18:00 +14°C° 0 mm 5 m/s 764 mmHg 32%
    19:00 +13°C° 0 mm 5 m/s 764 mmHg 34%
    20:00 +13°C° 0 mm 5 m/s 764 mmHg 35%
    21:00 +11°C° 0 mm 6 m/s 764 mmHg 36%
    22:00 +11°C° 0 mm 6 m/s 764 mmHg 37%
    23:00 +10°C° 0 mm 6 m/s 764 mmHg 38%

    Amanhã, 19 Janeiro, Sábado

    Tempo Temperatura Precipitação Vento Pressão Humidade
    00:00 +10°C° 0 mm 6 m/s 764 mmHg 39%
    01:00 +10°C° 0 mm 6 m/s 764 mmHg 39%
    02:00 +9°C° 0 mm 6 m/s 763 mmHg 40%
    03:00 +9°C° 0 mm 6 m/s 763 mmHg 40%
    04:00 +9°C° 0 mm 6 m/s 763 mmHg 41%
    05:00 +9°C° 0 mm 6 m/s 763 mmHg 41%
    06:00 +8°C° 0 mm 6 m/s 763 mmHg 41%
    07:00 +8°C° 0 mm 6 m/s 763 mmHg 41%
    08:00 +10°C° 0 mm 6 m/s 763 mmHg 37%
    09:00 +11°C° 0 mm 6 m/s 763 mmHg 34%
    10:00 +14°C° 0 mm 7 m/s 763 mmHg 30%
    11:00 +15°C° 0 mm 7 m/s 763 mmHg 28%
    12:00 +16°C° 0 mm 6 m/s 762 mmHg 26%
    13:00 +19°C° 0 mm 6 m/s 761 mmHg 23%
    14:00 +19°C° 0 mm 6 m/s 761 mmHg 23%
    15:00 +19°C° 0 mm 5 m/s 761 mmHg 23%
    16:00 +20°C° 0 mm 5 m/s 760 mmHg 23%
    17:00 +19°C° 0 mm 5 m/s 760 mmHg 24%
    18:00 +17°C° 0 mm 5 m/s 761 mmHg 25%
    19:00 +16°C° 0 mm 5 m/s 761 mmHg 27%
    20:00 +16°C° 0 mm 6 m/s 761 mmHg 26%
    21:00 +16°C° 0 mm 6 m/s 761 mmHg 26%
    22:00 +16°C° 0 mm 7 m/s 761 mmHg 26%
    23:00 +16°C° 0 mm 7 m/s 761 mmHg 27%

    Depois de amanhã, 20 Janeiro, Domingo

    Tempo Temperatura Precipitação Vento Pressão Humidade
    00:00 +16°C° 0 mm 7 m/s 761 mmHg 28%
    01:00 +16°C° 0 mm 6 m/s 761 mmHg 28%
    02:00 +16°C° 0 mm 6 m/s 761 mmHg 35%
    03:00 +15°C° 0 mm 6 m/s 761 mmHg 42%
    04:00 +15°C° 0 mm 6 m/s 761 mmHg 49%
    05:00 +14°C° 0.2 mm 6 m/s 761 mmHg 57%
    06:00 +14°C° 0.2 mm 5 m/s 762 mmHg 66%
    07:00 +13°C° 0.2 mm 5 m/s 762 mmHg 74%
    08:00 +14°C° 0 mm 4 m/s 762 mmHg 72%
    09:00 +14°C° 0 mm 4 m/s 763 mmHg 70%
    10:00 +16°C° 0 mm 3 m/s 763 mmHg 67%
    11:00 +17°C° 0 mm 4 m/s 763 mmHg 64%
    12:00 +18°C° 0 mm 4 m/s 762 mmHg 60%
    13:00 +19°C° 0 mm 4 m/s 762 mmHg 57%
    14:00 +17°C° 0 mm 5 m/s 762 mmHg 57%
    15:00 +17°C° 0 mm 5 m/s 762 mmHg 58%
    16:00 +17°C° 0 mm 5 m/s 762 mmHg 58%
    17:00 +16°C° 0 mm 5 m/s 762 mmHg 60%
    18:00 +17°C° 0 mm 4 m/s 762 mmHg 63%
    19:00 +16°C° 0 mm 3 m/s 763 mmHg 65%
    20:00 +14°C° 0 mm 3 m/s 763 mmHg 66%
    21:00 +14°C° 0 mm 3 m/s 763 mmHg 66%
    22:00 +15°C° 0 mm 2 m/s 764 mmHg 67%
    23:00 +14°C° 0 mm 2 m/s 764 mmHg 67%

    21 Janeiro, Segunda-feira

    Tempo Temperatura Precipitação Vento Pressão Humidade
    00:00 +14°C° 0 mm 2 m/s 763 mmHg 66%
    01:00 +14°C° 0 mm 2 m/s 763 mmHg 66%
    02:00 +14°C° 0 mm 2 m/s 763 mmHg 66%
    03:00 +13°C° 0 mm 2 m/s 763 mmHg 65%
    04:00 +13°C° 0 mm 2 m/s 763 mmHg 65%
    05:00 +13°C° 0 mm 2 m/s 763 mmHg 66%
    06:00 +13°C° 0 mm 2 m/s 764 mmHg 67%
    07:00 +12°C° 0 mm 2 m/s 764 mmHg 68%
    08:00 +14°C° 0 mm 2 m/s 764 mmHg 62%
    09:00 +15°C° 0 mm 2 m/s 764 mmHg 57%
    10:00 +17°C° 0 mm 2 m/s 765 mmHg 52%
    11:00 +17°C° 0 mm 2 m/s 764 mmHg 48%
    12:00 +18°C° 0 mm 2 m/s 764 mmHg 44%
    13:00 +18°C° 0 mm 2 m/s 763 mmHg 40%
    14:00 +18°C° 0 mm 2 m/s 763 mmHg 38%
    15:00 +20°C° 0 mm 1 m/s 763 mmHg 37%
    16:00 +20°C° 0 mm 1 m/s 763 mmHg 35%
    17:00 +19°C° 0 mm 1 m/s 763 mmHg 38%
    18:00 +18°C° 0 mm 1 m/s 763 mmHg 42%
    19:00 +16°C° 0 mm 2 m/s 764 mmHg 45%
    20:00 +16°C° 0 mm 3 m/s 764 mmHg 45%
    21:00 +14°C° 0 mm 3 m/s 764 mmHg 45%
    22:00 +14°C° 0 mm 4 m/s 764 mmHg 46%
    23:00 +14°C° 0 mm 4 m/s 764 mmHg 47%

    22 Janeiro, Terça-feira

    Tempo Temperatura Precipitação Vento Pressão Humidade
    00:00 +13°C° 0 mm 5 m/s 764 mmHg 48%
    01:00 +13°C° 0 mm 5 m/s 763 mmHg 49%
    02:00 +13°C° 0 mm 5 m/s 763 mmHg 50%
    03:00 +12°C° 0 mm 5 m/s 763 mmHg 51%
    04:00 +12°C° 0 mm 5 m/s 763 mmHg 52%
    05:00 +12°C° 0 mm 5 m/s 763 mmHg 52%
    06:00 +12°C° 0 mm 5 m/s 763 mmHg 52%
    07:00 +12°C° 0 mm 5 m/s 763 mmHg 52%
    08:00 +13°C° 0 mm 5 m/s 764 mmHg 48%
    09:00 +15°C° 0 mm 5 m/s 764 mmHg 43%
    10:00 +16°C° 0 mm 5 m/s 764 mmHg 38%
    11:00 +17°C° 0 mm 5 m/s 763 mmHg 35%
    12:00 +19°C° 0 mm 4 m/s 763 mmHg 32%
    13:00 +20°C° 0 mm 4 m/s 762 mmHg 29%
    14:00 +21°C° 0 mm 3 m/s 762 mmHg 29%
    15:00 +21°C° 0 mm 2 m/s 761 mmHg 29%
    16:00 +22°C° 0 mm 1 m/s 761 mmHg 30%
    17:00 +20°C° 0 mm 2 m/s 761 mmHg 31%
    18:00 +19°C° 0 mm 2 m/s 761 mmHg 33%
    19:00 +18°C° 0 mm 3 m/s 761 mmHg 35%
    20:00 +17°C° 0 mm 3 m/s 761 mmHg 35%
    21:00 +17°C° 0 mm 4 m/s 761 mmHg 36%
    22:00 +15°C° 0 mm 4 m/s 761 mmHg 36%
    23:00 +15°C° 0 mm 5 m/s 760 mmHg 37%

    23 Janeiro, Quarta-feira

    Tempo Temperatura Precipitação Vento Pressão Humidade
    00:00 +14°C° 0 mm 5 m/s 760 mmHg 39%
    01:00 +14°C° 0 mm 5 m/s 759 mmHg 40%
    02:00 +13°C° 0 mm 5 m/s 759 mmHg 41%
    03:00 +13°C° 0 mm 5 m/s 759 mmHg 41%
    04:00 +13°C° 0 mm 6 m/s 758 mmHg 42%
    05:00 +11°C° 0 mm 6 m/s 758 mmHg 42%
    06:00 +11°C° 0 mm 6 m/s 758 mmHg 41%
    07:00 +11°C° 0 mm 6 m/s 758 mmHg 41%
    08:00 +14°C° 0 mm 6 m/s 758 mmHg 37%
    09:00 +15°C° 0 mm 7 m/s 757 mmHg 34%
    10:00 +17°C° 0 mm 7 m/s 757 mmHg 30%
    11:00 +18°C° 0 mm 7 m/s 756 mmHg 28%
    12:00 +20°C° 0 mm 6 m/s 755 mmHg 27%
    13:00 +21°C° 0 mm 6 m/s 755 mmHg 26%
    14:00 +21°C° 0 mm 5 m/s 754 mmHg 26%
    15:00 +21°C° 0 mm 5 m/s 754 mmHg 26%
    16:00 +21°C° 0 mm 4 m/s 754 mmHg 27%
    17:00 +20°C° 0 mm 5 m/s 754 mmHg 35%
    18:00 +19°C° 0 mm 6 m/s 755 mmHg 44%
    19:00 +17°C° 0 mm 8 m/s 755 mmHg 52%
    20:00 +16°C° 0 mm 7 m/s 755 mmHg 55%
    21:00 +16°C° 0 mm 7 m/s 756 mmHg 58%
    22:00 +16°C° 0 mm 7 m/s 756 mmHg 61%
    23:00 +15°C° 0 mm 7 m/s 756 mmHg 53%
    Mostrar mais